Volver al catálogo

STARLINK-5186

ActivoComunicacionesVLEO
NORAD 54177·PAYLOAD·🇺🇸 United States

Lanzado Oct 28, 2022 desde Vandenberg Space Force Base

Loading…

Próximos Pases (próximas 24 horas)

TLE

ActualizadoSource: CelesTrak SupGP

Época: Sep 14, 2026, 20:47 UTC

1 54177C 22141W   26257.86645833  .00030482  00000+0  90141-3 0  2570
2 54177  53.1579 220.0953 0001411 102.2661  74.9005 15.34347049    18

Sigue STARLINK-5186 en tiempo real con AllMySat

Download on the App Store